ONEWEB-0672 (55831 NORAD) Tracking and Keplerian Element Data

This shows tracking and keplerian element data for the satellite.

Feedback or suggestion? Click here.




ElementValue
Catalog55831
NameONEWEB-0672
Epoch Orbit939
Epoch Day127.16171736
Epoch Year2023
RAAN173.415
Inclination86.5065
Eccentricity0.000142
Argument of Perigee118.6186
Mean Anonmoly241.5186
Mean Motion14.93110871
Decay Rate4.369E-05
L11 55831U 23029AM 23127.16171736 .00004369 00000+0 41675-3 0 9992
L22 55831 86.5065 173.4150 0001420 118.6186 241.5186 14.93110871 9396



Live tracking and technical data element details for ONEWEB-0672 (NORAD 55831). ONEWEB-0672 can be tracked NOW for your location showing map with azimuth and elevation plus other details from your city location.







IsCatalogInMostPopularTable: catalog: 55831, numindb: 6
Update: records affected: 1



GetName: 55831 ONEWEB-0672

Hit Count: updated at: Tue, 06 Jun 2023 02:34:32 GMT